Theta_e
348 349 348 349 349 349 349 349 348 348 349 349 350 350 351 351 352 353 353 353 353 353 353 353 353 354 353 353 353 352 352 352 351 350 351 352 352 352 352 352 353 352 353 352 352 353 352 352 351 350 350 350 350 351 351 351 352 351 349 347 347 348 351
347 348 348 348 348 349 349 348 347 348 348 349 349 349 350 351 351 352 353 353 353 352 353 353 353 354 354 353 354 353 352 352 352 351 351 351 352 352 352 352 352 352 352 352 351 352 352 352 351 350 351 351 351 351 351 351 352 352 351 348 348 349 351
346 347 347 348 349 349 349 348 347 347 348 348 349 349 350 350 351 352 352 352 352 353 353 353 353 354 354 354 354 353 353 352 352 351 351 351 352 352 352 352 352 352 352 352 352 351 352 352 351 351 350 351 351 351 351 351 352 353 352 350 349 349 351
346 346 347 348 349 349 349 348 347 346 347 348 349 349 349 350 351 352 352 352 352 352 353 352 353 354 354 354 354 354 353 353 352 352 352 352 351 351 352 352 352 351 351 351 351 350 350 350 351 351 350 351 351 350 351 350 351 352 353 352 350 350 351
346 346 346 347 348 349 348 348 347 346 347 347 348 349 349 350 350 351 352 352 352 352 352 352 352 353 353 353 354 354 353 353 353 353 352 352 351 351 351 351 352 352 351 351 351 350 349 349 350 350 351 350 351 351 351 350 351 351 353 353 352 351 352
346 346 347 348 347 348 348 347 347 346 346 346 347 348 349 349 350 351 351 352 352 352 352 352 353 353 353 353 353 353 353 353 353 353 352 352 352 352 351 351 351 351 351 351 350 350 350 350 349 349 350 350 350 351 351 351 350 351 352 353 353 353 352
345 346 347 347 347 347 348 347 347 346 346 346 346 347 348 349 350 350 351 351 352 351 351 352 352 353 353 353 353 354 353 353 353 352 352 352 352 351 351 352 352 351 351 351 350 350 350 350 349 349 349 350 350 351 350 351 350 351 352 353 353 354 353
345 347 346 346 347 347 347 348 347 346 347 346 346 347 347 348 349 350 351 351 351 351 352 352 352 353 353 353 353 354 353 353 353 352 352 352 352 352 351 351 352 351 351 351 350 351 350 350 350 349 349 350 350 350 351 351 351 350 352 353 353 353 354
344 346 346 347 346 346 348 348 348 347 347 346 347 347 347 348 348 349 350 351 351 351 352 351 352 352 352 353 353 353 353 353 353 352 352 352 352 351 351 351 351 351 351 351 351 350 350 350 350 350 350 350 351 351 351 351 351 351 352 353 354 353 353
345 346 346 347 346 347 348 348 349 349 348 347 346 347 348 347 348 349 349 351 351 352 352 351 352 352 353 353 353 353 353 353 353 353 353 352 352 352 351 351 351 351 351 351 351 350 350 350 350 351 351 351 351 351 352 351 351 352 352 352 352 353 353
345 347 348 348 348 348 349 350 352 352 349 348 347 347 348 348 348 349 349 350 350 351 352 351 352 351 352 352 352 353 353 353 353 353 352 352 352 352 352 351 351 351 350 351 350 350 351 351 351 351 351 352 351 351 352 351 352 352 352 352 353 353 353
344 347 348 349 349 349 351 352 353 354 351 348 347 347 347 348 349 348 349 350 350 351 352 351 352 351 352 352 352 352 353 352 353 352 352 353 352 352 352 351 351 351 351 350 350 351 351 351 352 352 352 352 352 352 352 352 353 353 353 354 353 353 353
345 346 346 348 349 349 353 354 354 353 352 348 347 348 348 347 349 348 349 350 350 350 351 351 352 351 351 352 352 352 353 352 352 352 352 352 352 352 352 352 351 351 351 351 350 350 350 351 351 352 352 352 352 353 352 352 353 353 353 354 354 354 354
346 346 346 348 348 350 353 354 354 353 352 349 348 348 349 349 349 349 349 349 349 351 350 351 351 351 351 352 352 352 352 352 352 352 352 352 352 352 352 352 351 351 351 351 350 350 351 351 351 351 351 352 352 353 353 353 354 354 354 354 354 354 354
344 344 345 348 349 351 352 352 354 353 352 350 349 348 349 349 349 350 349 350 350 350 351 351 351 351 352 352 352 352 352 351 352 352 352 352 351 351 351 351 351 351 351 351 351 351 351 351 351 351 351 352 352 353 353 353 354 353 353 353 354 354 354
342 345 346 347 348 350 352 352 352 353 353 351 349 348 349 349 349 350 351 351 351 350 351 351 351 351 352 352 352 352 352 352 352 352 352 352 351 351 351 352 352 351 351 351 351 351 352 352 352 351 351 352 352 353 353 354 354 353 352 352 353 353 354
342 346 345 347 349 348 350 352 352 352 354 353 349 348 349 350 350 350 351 351 351 351 352 352 352 352 352 352 352 352 352 352 352 352 352 351 352 352 352 352 352 352 351 351 351 352 352 352 352 352 352 352 353 353 353 353 353 352 353 352 353 354 354
344 348 348 347 349 349 350 352 352 353 353 350 348 349 349 350 351 351 352 352 352 353 353 353 353 353 352 353 353 352 353 353 352 352 353 352 352 352 352 352 352 352 352 351 352 352 352 351 351 352 352 352 353 353 353 353 353 352 353 354 354 354 354
345 346 348 348 349 350 351 350 351 351 351 349 349 348 349 350 351 352 352 352 353 353 354 354 354 354 353 353 353 353 353 353 353 353 353 353 353 352 353 352 352 352 352 352 352 352 351 352 352 351 352 351 352 352 352 353 353 353 354 353 354 354 355
349 346 346 347 348 348 350 350 351 349 349 348 349 348 349 349 350 352 353 353 354 354 355 355 355 355 355 354 354 354 354 354 354 354 354 354 353 353 353 353 353 353 353 352 352 352 352 352 352 352 352 352 352 352 352 352 352 352 352 353 354 354 355
353 351 350 349 349 350 350 351 352 350 348 348 349 349 348 349 350 351 352 353 354 355 355 356 356 356 356 356 356 355 355 355 355 354 354 355 354 354 354 353 353 353 353 353 353 353 353 352 352 352 352 352 352 352 352 351 351 351 352 352 353 354 354
363 354 350 350 351 352 353 350 349 349 349 348 349 349 348 349 350 350 352 353 354 356 356 357 357 357 357 357 356 357 356 356 356 355 355 355 355 355 354 354 354 353 354 354 353 353 353 353 353 353 352 353 353 352 352 352 352 351 351 351 352 353 354
367 360 354 352 349 347 347 345 345 347 348 348 349 349 348 349 350 350 351 352 354 356 356 357 358 358 357 358 358 357 358 357 357 356 356 356 356 355 355 355 355 355 354 354 354 353 353 353 353 353 352 353 353 352 353 353 352 352 352 351 352 352 352
360 363 364 360 353 347 343 345 347 347 348 349 349 348 349 350 351 351 352 352 354 355 356 357 358 358 358 359 359 358 359 358 358 357 357 357 356 356 356 355 355 355 355 355 354 354 354 354 353 353 353 353 353 353 353 353 353 353 352 352 352 352 352
358 360 360 360 357 352 348 348 349 348 349 349 349 349 349 350 352 352 353 353 353 354 355 357 357 358 359 359 359 359 359 359 359 359 358 358 357 357 357 356 356 356 355 355 355 355 355 354 354 354 353 354 354 353 353 353 353 353 353 353 353 353 353
356 357 358 358 357 356 354 353 352 351 350 349 349 350 350 351 353 354 354 354 354 354 355 355 356 357 358 359 359 360 360 360 360 360 359 359 359 359 358 357 357 357 357 356 356 355 356 355 354 355 355 354 354 353 354 354 354 353 354 354 353 353 353
353 354 356 356 357 357 357 356 357 356 355 354 352 352 351 353 353 354 356 356 355 355 355 355 356 356 357 358 359 359 360 361 360 360 360 360 360 359 359 359 358 358 358 357 357 356 356 356 355 355 355 354 354 354 354 354 354 354 354 353 353 353 353
351 352 353 353 354 354 354 355 356 357 358 359 356 354 353 354 356 357 358 357 356 357 356 357 357 357 357 358 360 360 361 361 361 361 361 361 360 360 359 360 359 359 358 358 357 357 357 357 356 356 356 355 355 355 354 354 354 354 354 354 354 353 354
348 350 350 350 350 351 351 352 353 353 357 359 360 359 357 358 359 360 359 359 359 359 359 358 359 358 359 359 360 360 361 362 362 362 362 361 361 361 360 360 360 359 359 358 358 357 357 357 356 356 356 356 356 355 355 355 354 354 354 354 354 354 354
344 346 348 349 349 349 348 349 350 351 353 355 358 360 359 359 361 360 359 361 362 362 362 361 360 361 360 360 361 361 361 362 362 362 363 363 362 361 361 361 360 359 359 359 358 358 357 357 357 356 356 356 356 356 355 355 355 355 355 354 354 355 354
340 342 344 347 349 348 347 348 349 349 349 352 354 357 359 360 361 359 359 362 364 364 364 364 364 362 362 362 361 362 361 362 363 363 364 363 363 362 362 361 361 360 359 359 359 358 358 358 357 357 356 357 356 356 356 356 356 355 355 355 355 355 355
338 339 341 344 347 347 347 347 347 347 348 348 350 352 355 357 359 357 358 362 365 366 366 366 365 365 364 363 362 362 361 361 363 363 363 363 364 364 363 362 362 361 360 359 359 358 358 358 357 357 357 356 356 356 356 356 356 356 356 356 356 356 356
336 337 338 340 343 346 346 346 346 346 346 346 348 349 350 352 353 354 357 361 364 365 366 366 366 367 367 366 364 363 362 362 362 363 363 363 364 364 364 364 363 362 361 360 360 359 359 358 358 357 357 356 357 357 357 357 356 356 357 357 357 357 357
335 336 337 339 340 344 346 345 345 345 345 345 348 348 348 349 350 351 353 358 361 364 365 366 366 368 368 367 365 364 363 361 361 362 362 363 363 364 364 364 364 363 362 361 361 360 360 359 358 358 358 358 358 358 358 357 358 358 359 358 358 359 359
335 335 337 338 339 342 345 346 345 345 345 346 347 349 349 349 350 351 352 353 357 361 364 366 366 366 368 368 366 364 363 362 362 362 363 363 362 362 363 363 363 363 363 362 362 361 361 360 360 360 360 359 359 359 358 358 359 360 361 360 360 360 360
334 335 336 338 339 341 344 346 346 346 346 346 348 348 349 349 350 351 351 352 354 358 361 364 366 366 367 368 367 365 362 362 363 363 363 361 360 359 359 359 361 362 363 363 363 363 363 362 362 362 362 361 361 360 360 360 362 362 362 361 361 361 362
334 334 336 338 339 341 343 345 348 348 347 346 347 347 348 348 349 349 350 352 354 354 357 361 363 365 366 367 366 365 364 363 364 364 362 360 360 359 357 355 356 358 361 363 364 363 364 364 363 363 363 362 362 362 361 361 361 360 360 361 360 360 361
333 334 337 338 338 340 341 344 347 348 347 346 346 346 347 348 347 347 349 352 353 353 355 357 361 363 364 365 365 365 364 364 364 362 360 358 358 358 357 356 353 352 353 358 362 363 364 364 364 365 364 364 364 363 362 360 358 358 358 359 358 356 354
Wind_Speed
13 13 14 13 14 15 17 17 19 23 27 29 31 34 35 36 37 37 36 38 39 38 39 39 38 38 39 39 40 39 37 36 35 35 35 33 33 32 32 31 31 31 31 31 32 32 31 29 28 27 26 25 25 24 23 22 20 20 20 21 21 20 18
13 14 14 14 14 16 17 17 20 24 27 29 31 34 35 36 38 38 37 38 40 40 39 40 39 39 39 40 39 38 38 37 36 36 35 34 33 33 33 33 33 33 33 33 32 32 31 30 29 28 26 26 26 25 24 23 21 20 20 20 21 20 20
15 15 15 16 16 17 16 16 20 25 28 29 31 34 37 38 39 40 39 39 40 39 39 40 40 39 39 39 38 38 38 37 37 36 35 35 35 34 34 33 33 33 33 33 32 32 31 31 30 29 27 26 26 26 25 24 23 22 21 21 21 21 21
15 16 17 18 18 17 16 15 17 23 27 31 34 36 37 39 39 40 40 40 40 40 40 40 41 40 39 39 37 37 37 38 38 37 37 37 36 34 33 32 32 32 32 33 32 31 31 31 30 30 28 27 26 27 26 25 24 23 22 21 22 22 22
15 15 15 16 16 14 14 15 17 23 28 31 34 36 36 38 38 38 39 40 41 42 42 41 40 40 39 38 37 37 37 38 38 38 37 36 34 33 33 33 33 33 33 33 32 31 31 31 30 30 29 29 28 28 27 26 25 25 24 23 23 23 23
13 14 14 15 15 15 16 17 21 28 31 32 34 34 34 36 36 37 38 38 39 40 41 41 40 40 39 38 37 36 36 37 37 38 37 35 34 34 34 34 33 33 33 32 32 31 31 30 30 30 30 30 29 29 29 28 27 27 26 25 25 24 24
13 13 14 15 15 16 18 18 21 28 31 31 31 31 32 35 36 37 37 38 39 39 38 39 39 39 39 38 37 36 36 37 37 37 37 36 35 35 35 34 33 33 33 32 32 32 31 31 31 31 30 30 30 30 30 30 30 29 28 27 27 26 26
14 14 15 16 16 16 17 17 18 23 27 28 29 31 33 35 36 36 36 37 38 38 38 39 39 39 39 38 37 38 37 37 37 37 36 36 35 35 35 34 33 33 32 32 32 32 32 32 32 32 31 30 30 30 31 31 30 30 29 29 28 28 27
13 14 15 16 16 16 15 15 16 20 24 27 30 31 33 34 34 36 37 37 36 37 38 39 40 40 40 38 38 38 38 37 36 37 36 36 36 36 35 34 33 33 33 32 33 33 33 33 33 32 32 31 31 31 31 31 31 30 30 30 30 29 29
12 13 14 14 15 14 12 12 13 15 18 23 26 29 31 33 34 35 36 36 37 37 39 39 39 39 39 38 38 38 37 36 35 36 36 36 36 36 36 35 33 33 33 33 33 33 34 33 33 33 32 32 32 32 32 32 31 31 31 31 31 30 30
12 13 13 14 14 13 12 12 13 14 15 20 25 28 31 33 33 35 36 37 37 37 38 38 38 38 38 38 37 36 36 36 35 35 36 36 36 36 36 35 34 33 33 33 33 33 33 33 33 32 33 33 34 34 34 33 33 32 32 32 32 31 31
11 12 13 15 15 14 13 14 15 16 16 20 25 27 29 32 33 34 35 36 37 37 37 37 37 37 37 37 36 36 36 36 36 36 37 37 37 37 36 35 34 34 34 34 34 34 33 33 33 33 34 35 35 35 35 34 33 33 33 33 32 32 32
11 12 14 15 15 14 14 14 16 17 17 20 25 27 29 31 33 33 34 35 36 36 36 37 37 37 37 37 36 36 37 37 38 38 38 38 38 38 37 36 36 35 35 35 35 35 34 34 33 33 34 35 35 35 35 34 34 34 34 33 33 33 33
12 14 14 14 14 15 16 16 17 17 17 19 24 26 27 29 31 33 34 35 35 36 36 37 37 38 37 37 37 37 38 40 40 40 40 39 39 38 37 37 36 36 36 35 35 36 36 35 35 34 34 35 35 35 35 34 34 34 34 34 34 34 34
14 16 15 15 15 16 17 17 17 17 17 18 22 25 26 28 30 31 32 34 35 36 37 38 38 38 37 37 38 39 40 40 39 39 38 37 36 36 36 36 36 36 36 36 36 36 36 35 35 34 34 34 35 34 34 34 35 35 35 35 35 35 34
15 16 16 16 17 17 18 18 18 17 16 16 19 24 26 27 29 32 33 34 36 37 38 38 38 38 37 37 39 39 38 38 37 36 36 35 35 35 36 36 36 36 36 36 37 36 35 34 34 34 34 34 34 33 33 34 35 36 37 36 36 35 34
14 15 15 16 16 16 17 16 16 15 15 16 19 25 27 28 31 32 33 34 36 37 37 38 37 37 37 38 38 37 36 36 36 35 35 36 36 36 37 37 36 35 36 36 36 35 34 34 33 34 34 34 34 34 34 35 36 37 37 37 36 35 34
13 14 15 16 16 16 16 16 15 17 17 18 22 26 28 29 29 30 32 34 36 36 36 37 37 37 37 36 36 36 36 36 35 35 36 36 37 37 37 36 36 36 36 36 35 35 35 34 34 35 35 34 34 35 35 36 37 37 37 37 36 35 34
11 13 14 16 16 16 17 16 16 18 19 20 25 30 32 32 32 33 35 36 35 35 35 36 35 35 35 35 36 36 36 36 36 36 36 37 38 37 37 36 36 36 36 36 36 36 35 35 36 36 36 36 35 36 36 37 37 38 38 37 37 36 35
8 9 11 13 15 16 16 15 15 17 20 25 30 32 33 33 32 30 30 31 33 34 34 34 33 33 34 35 36 36 36 36 36 36 37 37 38 37 37 37 37 37 37 36 36 35 35 36 36 37 37 37 37 37 37 38 38 38 38 37 36 35 34
7 8 8 9 11 12 13 14 13 14 18 24 27 27 29 29 27 26 28 30 32 33 33 33 33 33 34 35 35 35 36 36 36 36 36 37 37 36 37 37 37 37 37 36 36 36 37 37 37 37 37 37 37 37 38 39 39 38 38 38 36 34 33
5 8 9 9 10 11 11 13 14 15 18 22 25 26 27 27 27 27 29 31 31 31 32 32 32 32 33 33 34 35 35 36 36 35 36 36 36 35 35 36 36 37 37 36 36 36 37 37 36 36 37 37 36 36 38 40 40 39 39 38 36 33 32
1 5 8 8 8 9 11 14 16 18 20 23 25 27 27 28 29 28 28 28 29 30 31 31 31 32 32 32 34 35 36 36 36 36 36 35 35 35 35 36 37 37 37 35 34 35 35 36 36 36 37 36 36 37 39 41 40 39 39 38 35 33 33
6 4 4 7 9 10 12 17 19 21 24 24 24 25 27 28 29 28 27 28 29 30 29 29 30 31 32 33 35 36 36 37 37 37 36 35 35 36 37 37 37 37 36 35 35 36 36 36 35 36 36 36 37 38 39 40 39 38 38 37 35 34 34
10 8 7 7 10 12 15 20 23 24 26 25 24 26 29 30 30 28 26 27 29 29 28 29 31 32 33 35 36 36 36 36 37 36 35 35 36 37 38 37 37 37 36 35 35 36 36 35 34 34 35 36 37 37 38 39 39 38 37 36 34 34 34
11 10 9 9 10 13 18 22 22 22 22 24 27 30 33 33 31 29 27 27 28 28 28 31 33 33 35 35 34 34 34 35 35 36 35 36 37 38 38 37 36 35 34 34 34 34 33 33 32 33 33 34 35 36 37 38 38 38 37 36 34 34 34
12 14 13 13 13 15 16 17 18 18 18 22 28 31 33 33 29 25 24 25 25 26 29 32 33 33 34 33 31 32 32 33 34 36 36 37 37 37 36 35 34 33 32 33 33 32 32 31 31 32 32 33 33 34 36 37 38 38 36 35 35 34 34
13 15 16 17 18 17 16 15 16 16 14 18 25 29 30 29 24 20 21 22 21 23 26 28 30 31 31 30 30 30 31 32 33 34 35 35 35 33 33 34 33 32 32 32 31 31 31 31 30 29 30 30 31 32 34 35 36 36 35 35 34 34 34
13 13 13 15 17 17 16 15 15 16 15 16 21 26 27 26 21 19 20 18 17 19 21 23 25 25 26 28 29 29 30 31 33 34 34 34 34 33 33 33 32 31 31 30 30 29 29 29 29 27 27 28 29 31 32 33 34 34 34 34 34 34 34
14 13 12 12 15 18 19 16 15 17 19 19 20 23 26 26 23 20 18 16 15 17 18 19 21 22 23 27 29 29 31 32 32 34 34 34 34 33 33 32 30 30 30 30 29 28 27 27 27 26 25 26 27 29 31 32 32 32 33 33 33 32 32
14 14 14 14 16 19 19 17 16 18 19 20 22 23 24 26 26 22 17 15 15 16 15 16 19 22 24 27 28 30 31 32 33 34 35 34 34 33 32 31 29 29 29 29 28 27 25 25 25 25 25 25 26 27 29 30 30 30 30 30 30 30 30
12 14 15 15 16 17 17 17 17 17 17 19 21 23 23 24 25 22 17 15 15 14 14 14 14 16 20 24 27 29 29 29 30 32 32 33 33 32 32 32 30 29 28 28 27 26 25 25 24 24 23 23 24 26 27 27 28 28 28 27 27 28 28
11 12 13 14 15 16 16 15 14 13 14 15 17 20 22 22 21 20 16 15 14 13 13 12 11 10 12 15 20 24 26 27 27 27 28 29 29 29 29 30 29 29 28 27 26 24 23 23 23 22 22 22 23 25 25 24 24 25 25 26 26 27 27
10 11 14 17 17 16 14 12 11 11 11 11 14 17 19 19 18 17 15 14 12 11 12 11 9 8 8 9 12 16 20 24 25 25 25 25 25 24 24 25 26 26 27 27 27 25 24 24 23 24 24 25 24 23 22 21 23 24 25 26 26 26 26
11 12 14 16 16 15 13 11 10 10 10 10 12 16 17 18 16 15 13 13 11 10 10 9 8 7 5 6 9 12 15 19 22 23 23 22 21 20 19 19 21 22 23 25 27 27 27 26 26 27 27 27 25 23 21 22 24 26 26 26 25 24 24
11 13 14 16 16 16 15 13 11 11 11 11 12 15 16 16 15 14 13 12 11 10 10 8 6 5 4 3 6 9 13 16 18 20 21 21 20 19 16 14 15 17 18 19 21 24 26 26 26 27 27 26 25 24 24 24 26 26 24 23 23 22 22
11 12 14 15 15 15 15 15 14 13 12 12 12 13 14 15 14 14 13 12 11 10 10 8 6 4 2 2 4 8 11 14 17 19 20 21 21 21 18 14 11 10 12 15 17 19 22 23 23 23 23 23 23 23 23 23 23 21 20 20 20 20 19
14 14 15 16 16 16 15 15 14 12 11 11 12 12 12 12 13 12 12 11 11 11 10 8 6 4 2 2 4 8 12 15 17 19 20 21 21 21 20 18 13 10 7 8 12 14 17 18 19 19 20 20 20 21 21 20 17 16 16 16 16 16 15
Wind_Direction
197 200 197 198 195 194 197 195 193 193 194 194 193 193 193 194 195 195 196 197 197 199 199 200 202 203 204 207 209 209 209 209 209 210 212 214 216 217 218 219 220 222 224 226 229 230 231 232 232 234 237 239 242 244 247 250 251 251 249 247 247 247 249
193 199 197 197 199 199 199 194 192 194 195 195 194 193 194 194 194 195 195 196 197 199 199 200 202 203 205 207 208 209 209 209 209 210 211 213 216 218 220 221 222 224 226 229 231 233 234 234 234 236 238 240 242 243 246 250 251 252 251 248 246 247 249
193 196 194 196 200 200 197 192 193 195 195 194 193 193 195 195 195 195 195 195 197 198 199 200 202 203 205 207 208 208 209 209 210 210 212 214 216 218 220 222 224 226 228 230 233 235 236 236 236 237 238 241 242 243 245 249 251 252 252 250 248 247 249
194 195 193 196 200 198 194 192 194 195 196 197 195 195 196 195 195 196 196 196 195 196 198 200 202 203 205 206 207 208 209 209 210 211 213 215 217 217 218 221 224 226 229 232 234 236 237 237 237 237 238 240 241 242 245 249 252 253 253 252 250 249 250
197 196 193 197 199 195 191 191 193 195 197 198 197 196 195 195 195 196 197 197 196 197 199 200 201 203 205 206 207 208 209 210 211 212 214 215 216 216 218 221 224 226 229 233 234 235 236 237 238 238 238 238 240 242 244 248 252 253 254 253 251 250 251
197 193 194 197 197 194 192 193 195 195 196 196 196 195 193 192 194 196 196 197 197 198 199 199 200 202 204 206 207 208 209 210 211 212 214 214 215 216 219 221 223 225 229 231 233 235 236 237 239 240 240 239 240 241 243 247 250 252 253 253 253 252 253
195 192 197 198 196 196 195 195 196 194 194 193 192 191 190 191 193 195 196 196 196 197 197 198 199 201 203 205 206 207 209 210 211 212 213 214 215 217 220 221 222 225 228 230 232 234 235 236 238 240 241 241 241 242 243 246 248 250 251 252 253 253 254
196 194 199 199 197 198 197 196 194 190 187 186 187 189 190 191 192 193 195 195 196 195 196 197 198 200 202 204 205 207 209 210 211 212 213 214 215 218 219 220 222 225 227 228 231 233 235 236 238 239 241 241 242 243 244 246 248 249 250 250 252 253 253
201 198 201 200 198 198 197 195 188 182 181 184 186 188 188 188 190 192 194 195 195 195 196 197 198 200 201 202 204 207 208 209 210 211 212 213 215 217 219 220 222 224 225 227 230 232 234 236 237 238 239 241 242 243 245 247 248 249 249 250 251 252 253
205 203 204 201 199 199 194 186 179 177 181 184 185 186 186 187 189 191 192 193 194 196 197 197 198 199 200 202 204 206 207 208 209 210 211 213 215 217 218 220 221 222 224 227 228 230 233 234 236 237 238 240 241 243 244 246 247 248 249 250 251 252 253
206 204 204 201 199 194 182 174 176 180 184 185 185 186 185 186 187 189 191 192 194 195 196 196 197 198 199 201 203 204 205 207 208 210 211 212 215 217 218 219 220 221 223 225 227 229 231 232 234 234 236 238 240 242 243 244 245 246 248 249 250 252 253
208 204 202 200 197 189 180 178 181 184 184 185 186 186 184 184 186 188 189 191 193 194 194 195 196 197 198 200 201 202 204 206 207 209 211 213 214 216 218 218 219 220 222 224 226 228 230 231 232 233 234 237 239 241 243 244 244 245 247 248 249 251 253
209 206 203 199 193 185 181 182 185 185 185 186 187 186 184 184 185 186 187 189 192 193 193 193 195 196 197 199 201 202 204 205 208 210 212 214 215 216 217 217 219 220 222 224 225 227 229 229 231 232 234 237 238 240 242 243 244 245 245 247 248 250 251
208 208 205 197 189 183 182 185 187 186 185 185 185 184 183 184 185 185 186 187 189 190 191 192 193 195 197 199 200 203 205 206 209 210 212 214 215 215 216 217 218 219 221 223 225 227 228 229 231 233 234 236 237 239 240 241 242 244 244 245 246 247 249
209 206 201 193 187 184 185 187 186 185 185 184 181 180 179 182 183 183 184 186 187 189 191 191 192 194 196 198 200 204 206 207 208 210 212 213 213 214 215 217 218 219 221 223 225 227 228 229 231 232 234 236 237 238 238 238 240 242 243 244 244 245 247
208 201 195 191 187 186 188 188 186 183 181 179 179 179 178 179 181 182 184 185 186 188 190 190 192 194 195 198 202 204 205 206 208 209 210 211 213 214 216 217 218 218 220 222 225 227 228 229 230 231 233 235 237 237 237 238 240 242 243 245 245 245 246
203 193 189 189 187 185 187 186 182 177 176 179 181 180 180 181 182 183 183 184 186 188 189 189 191 193 195 199 202 203 204 205 206 208 209 210 212 215 216 217 217 218 220 222 224 226 227 228 229 231 233 235 236 237 237 239 240 242 244 245 245 245 245
196 187 185 188 186 186 186 182 177 175 178 182 181 181 183 182 180 181 183 185 186 187 187 188 191 193 196 199 200 201 203 204 205 207 208 210 212 214 216 217 217 219 220 222 223 225 226 228 229 231 233 234 236 237 238 240 242 243 244 245 245 246 245
198 191 187 185 184 183 182 179 179 180 181 181 181 184 185 182 181 184 186 185 184 184 185 188 191 193 195 198 199 201 202 203 204 206 208 210 212 213 215 215 216 218 220 221 223 224 225 227 229 231 233 234 235 237 239 241 243 244 245 246 246 246 245
201 199 194 189 187 184 182 181 181 182 182 183 184 185 184 183 184 184 182 180 181 182 184 187 189 192 195 197 200 201 202 203 204 206 208 210 211 212 213 214 216 218 219 221 222 223 225 227 229 231 232 234 235 237 240 242 243 245 246 247 247 247 246
186 188 191 192 188 182 179 178 177 178 182 183 182 180 180 181 180 175 175 178 180 181 183 185 188 192 195 198 200 201 202 203 204 206 208 210 211 212 213 214 216 218 219 220 221 222 225 227 228 230 232 233 235 237 240 243 244 245 246 247 247 247 246
185 178 178 183 185 181 179 179 175 174 174 173 173 174 176 177 175 172 175 178 179 181 183 185 189 193 196 198 200 201 202 203 204 206 208 209 210 211 213 214 216 218 219 220 221 223 225 227 228 230 231 233 234 236 240 244 245 246 247 248 247 247 246
356 166 162 161 164 162 162 163 160 158 159 162 168 173 174 174 173 172 173 175 177 180 183 186 190 194 196 198 200 202 203 203 204 206 208 209 209 210 213 215 217 218 219 219 220 222 224 226 228 230 231 233 233 234 238 243 245 246 247 247 246 245 245
22 56 119 138 139 136 139 143 146 150 154 157 165 170 171 171 171 170 170 174 178 180 183 188 193 195 197 200 202 203 204 204 206 207 207 208 209 211 214 215 217 219 218 218 219 222 224 226 228 230 231 232 233 234 237 242 244 245 246 247 245 244 244
31 39 47 87 119 133 140 142 144 149 153 157 163 169 170 170 169 168 171 176 179 181 185 191 196 197 199 203 204 205 205 205 207 208 208 208 210 212 215 216 218 219 219 218 220 223 225 226 227 229 231 232 234 236 237 241 245 246 246 246 245 243 243
35 42 42 53 85 117 133 139 143 148 156 162 167 169 170 169 169 172 176 178 179 183 189 195 198 200 203 206 206 206 206 207 207 209 209 210 212 214 216 217 218 218 218 218 220 224 226 226 227 229 231 232 234 236 237 240 243 245 246 246 245 243 243
38 46 48 49 62 88 107 119 128 137 151 162 166 167 168 169 171 174 176 176 180 188 194 197 200 202 205 207 207 207 208 208 209 210 212 213 215 216 217 217 218 217 217 218 220 222 225 226 227 229 232 233 234 235 237 239 242 244 245 245 245 244 242
35 42 47 49 54 68 81 90 97 104 122 149 160 164 166 167 165 165 167 171 180 189 193 197 200 202 205 207 207 208 209 209 211 212 214 215 216 216 217 218 218 218 218 218 219 221 223 225 226 228 231 234 234 236 238 239 242 244 245 245 245 245 243
26 30 37 42 44 54 69 75 75 76 88 121 147 156 159 155 146 144 151 159 170 181 187 193 197 199 203 207 209 210 210 211 212 213 214 216 215 215 217 219 218 218 218 217 217 219 221 224 225 226 230 234 235 237 239 240 241 243 244 246 246 247 246
21 23 28 34 38 49 60 65 66 66 71 89 114 133 142 140 130 126 130 136 149 164 177 188 193 196 202 207 210 211 211 212 213 214 215 216 215 215 217 218 217 217 217 216 216 217 219 222 223 223 226 231 234 237 239 240 241 242 244 246 247 248 249
15 18 21 26 34 46 55 60 63 65 64 71 87 102 117 123 120 114 113 120 133 146 158 173 186 195 202 207 209 211 212 213 214 215 216 216 215 214 215 215 215 214 215 215 214 215 217 219 220 220 223 227 231 235 238 240 240 241 243 245 247 250 252
8 13 19 20 23 36 51 58 60 62 62 65 75 85 94 103 107 105 105 113 123 133 143 154 169 186 198 205 209 211 211 211 213 215 216 217 216 214 215 215 214 213 213 213 212 213 215 217 218 219 221 225 229 234 237 239 240 241 243 244 246 248 251
3 4 10 14 16 27 45 55 54 56 59 62 71 80 85 89 93 95 98 106 115 126 135 137 143 159 180 196 207 211 211 211 213 215 216 216 216 215 215 216 214 213 212 210 210 211 213 215 217 218 219 222 228 232 235 237 237 238 240 241 242 244 246
360 1 5 9 15 25 38 50 55 59 60 63 73 81 82 84 86 88 90 94 102 118 129 129 128 133 151 178 196 206 210 212 214 214 214 214 213 212 213 214 214 213 213 212 211 209 210 212 215 217 218 221 224 228 230 231 233 235 238 239 240 240 241
355 358 1 2 9 22 33 37 48 59 60 65 76 81 80 80 81 82 83 84 87 98 110 117 119 114 123 162 184 196 206 209 209 208 207 204 203 202 204 208 211 214 216 217 217 215 215 215 216 220 223 224 224 224 221 223 232 239 241 240 239 238 239
358 355 358 360 3 15 26 28 35 48 52 57 68 73 72 72 74 74 75 77 80 84 87 94 105 105 105 145 177 192 199 198 197 197 196 193 190 187 187 193 203 210 213 215 217 219 221 221 223 226 228 227 227 226 226 231 241 244 240 235 233 232 233
8 353 352 359 2 6 14 21 29 36 37 44 56 61 61 62 64 64 64 67 74 78 76 75 87 104 115 152 179 186 188 187 184 183 184 185 184 181 175 171 176 191 201 206 211 214 218 221 225 229 230 229 229 228 228 233 240 240 232 225 224 225 225
7 360 357 3 6 3 3 8 16 22 28 41 52 54 52 52 51 51 54 60 65 69 70 68 76 104 131 167 182 180 181 182 179 176 176 176 176 177 174 165 151 138 149 185 203 208 212 216 220 225 228 229 230 228 226 225 226 224 218 210 202 196 187